Starlink 35458

operational
NORAD ID: 65925 Int'l Des: 2025-225 Owner: SPXS Country: US Constellation: starlink
NOTLE

About Starlink 35458

Description loading...

Live Position

Loading 3D Globe...

Upcoming Passes

Altitude History

Altitude vs Time

uPlot chart will show altitude changes over time

Two-Line Element Set

1 65925U 25225R 25310.75920187 .00083965 00000-0 15005-2 0 9997
2 65925 53.1601 18.3304 0002184 62.9461 297.1771 15.49329311 5565
Epoch: Nov 6, 2025 • Age: 10 hours

Current Status

Altitude 423.2 km
Velocity 7.66 km/s
Sub-Earth Point 49.76°N, 28.48°E
Launch Date Oct 8, 2025
Age 30 days
Type internet

Technical Details

Classification Payload
Mass 575.00 kg
Dry Mass 530.00 kg
Total Mass 575.00 kg
Length 0.30 m
Diameter 4.10 m
Span 29.00 m
Shape Box + pan
Manufacturer SPXS
Bus Type Starlink V2MO
Phase Status In Orbit
Owner/State SPXS/US

Large Constellations

Loading constellations...